This is the latest recevied weather packets stored in our database for station/object XQ6AK-15. If no packets are shown the sender has not sent any weather packets the latest 10 day(s).
| Time | Temp. | Humidity | Pressure | Rain* | Wind** | Luminosity | Snow |
|---|---|---|---|---|---|---|---|
| 1778348981 | 12.78° C | 61% | 1024.9 hPa | 0 mm | - | 356 W/m² | - |
| 1778348678 | 12.78° C | 63% | 1024.8 hPa | 0 mm | - | 314 W/m² | - |
| 1778348373 | 12.78° C | 64% | 1025.1 hPa | 0 mm | - | 266 W/m² | - |
| 1778348073 | 13.33° C | 62% | 1025.1 hPa | 0 mm | - | 289 W/m² | - |
| 1778347769 | 13.89° C | 61% | 1025.1 hPa | 0 mm | - | 378 W/m² | - |
| 1778347467 | 12.78° C | 64% | 1025 hPa | 0 mm | - | 341 W/m² | - |
| 1778347162 | 13.33° C | 62% | 1025.1 hPa | 0 mm | - | 344 W/m² | - |
| 1778346858 | 13.33° C | 65% | 1025.2 hPa | 0 mm | - | 388 W/m² | - |
| 1778346555 | 12.78° C | 66% | 1025.2 hPa | 0 mm | - | 334 W/m² | - |
| 1778346250 | 13.33° C | 65% | 1025.3 hPa | 0 mm | - | 374 W/m² | - |
| 1778345947 | 13.33° C | 68% | 1025.4 hPa | 0 mm | - | 367 W/m² | - |
| 1778345641 | 12.78° C | 70% | 1025.6 hPa | 0 mm | - | 395 W/m² | - |
| 1778345336 | 12.22° C | 70% | 1025.7 hPa | 0 mm | - | 335 W/m² | - |
| 1778345033 | 12.78° C | 72% | 1025.7 hPa | 0 mm | - | 354 W/m² | - |
| 1778344729 | 12.78° C | 70% | 1025.9 hPa | 0 mm | - | 430 W/m² | - |
| 1778344426 | 12.22° C | 70% | 1025.9 hPa | 0 mm | - | 419 W/m² | - |
| 1778344125 | 12.78° C | 69% | 1026 hPa | 0 mm | - | 411 W/m² | - |
| 1778343818 | 13.33° C | 72% | 1025.9 hPa | 0 mm | - | 433 W/m² | - |
| 1778343514 | 12.22° C | 73% | 1026.1 hPa | 0 mm | - | 396 W/m² | - |
| 1778343210 | 12.22° C | 73% | 1026.1 hPa | 0 mm | - | 380 W/m² | - |
| 1778342907 | 12.22° C | 73% | 1026.1 hPa | 0 mm | - | 370 W/m² | - |
| 1778342603 | 12.78° C | 75% | 1026.2 hPa | 0 mm | - | 367 W/m² | - |
| 1778342298 | 13.33° C | 73% | 1026.4 hPa | 0 mm | - | 326 W/m² | - |
| 1778341995 | 13.33° C | 73% | 1026.4 hPa | 0 mm | - | 319 W/m² | - |
| 1778341691 | 13.33° C | 72% | 1026.3 hPa | 0 mm | - | 347 W/m² | - |
* Rain latest hour (hover to see other rain measurements)
** Current wind speed in m/s (hover to see current wind gust speed)